SL-16 DEB

Satellite information

Favourite Embed

Satellite Type and Status

DEBRISIN ORBIT

Key statistics

Satellite SL-16 DEB at a glance.

Uptime

12038

Days in orbit

Revolutions

≈ 13.8

Per day

Orbit

LEO

Low Earth Orbit

Inclination

71.0

Latest

Satellite identification and parameters

Extended collection of information and parameters for SL-16 DEB.

Object identification

Identified? True

Debris? True

Object name: SL-16 DEB

International designator: 1992-076C

Object number (NORAD): 22221

Object ID (CCSDS): 22221

Country: COMMONWEALTH OF INDEPENDENT STATES (CIS)

Current information (Y/N): Y

RCS size: SMALL

Orbital parameters

Period: 104.527 minutes

Inclination: 71.0442 deg

SMA: 7350.417 km

Apoapsis: 1104.923 km

Periapsis: 839.641 km

RAAN: 320.6461 deg

Eccentricy: 0.01804537

Argument of periapsis: 105.5771 deg

Mean anomaly: 325.2709 deg

Mean motion: 13.77636972 rev/day

Mean motion (dot): 0.00000093 rev/day2

B* drag term: 0.00011958422 1/REarth

Two-line elements (TLE)

Creation date: Nov. 1, 2025, 7:40 p.m.

Reference frame: TEME

Reference center: EARTH

Epoch: Nov. 1, 2025, 10:37 a.m. UTC

TLE line 0: 0 SL-16 DEB

TLE line 1: 1 22221U 92076C 25305.44261755 .00000093 00000-0 11958-3 0 9991

TLE line 2: 2 22221 71.0442 320.6461 0180454 105.5771 325.2709 13.77636972655879

Live tracking on map

Real-time ground track for satellite SL-16 DEB.

In-orbit conjunctions

A list of the most updated potential collisions computed for object SL-16 DEB.

Target Orbit TCA Probability of collision Miss distance Type
FENGYUN 1C DEB SSO 2025-08-29 20:59:48 0.0001545625 705.0 (m) DEBRIS
FENGYUN 1C DEB SSO 2025-05-02 04:01:25 0.0008236117 49.0 (m) DEBRIS
COSMOS 1275 DEB LEO 2025-03-17 20:10:10 0.0006848329 98.0 (m) DEBRIS

Associated space launch

Second generation ELING satellite

SL-16 DEB was lifted into orbit during the mission ‘Zenit-2 | Tselina-2 11’, on board a Zenit-2 space rocket.

The launch took place on Nov. 17, 1992, 7:47 a.m. from 45/1.

For more information about the launch, click the button.

Launch to space Zenit-2 | Tselina-2 11
Zenit-2 | Tselina-2 11

Agency: N/A

Status: Launch Successful

Launch date: Nov. 17, 1992, 7:47 a.m. UTC

Rocket: Zenit-2

Launch pad: 45/1

Location: Baikonur Cosmodrome, Republic of Kazakhstan

...

Latest news about this satellite

There are no fresh news available about this satellite. Check back as we update our databases every day.


Newsletter sign-up

Weekly statistics, charts and insights to help you stay on top of the space industry.